Regional Weather Roundup
Issued by NWS

Home | Current Version | Previous Version | Graphics & Text | Print | Product List | Glossary On
Versions: 1 2 3 4 5 6 7 8 9 10 11 12 13 14 15 16 17 18 19 20 21 22 23 24 25 26 27 28 29 30 31 32 33 34 35 36 37 38 39 40 41 42 43 44 45 46 47 48 49 50
000
ASUS43 KFSD 180002
RWRSD

WEATHER ROUNDUP FOR SOUTH DAKOTA
NATIONAL WEATHER SERVICE SIOUX FALLS SD
600 PM CST WED DEC 17 2014

NOTE: "FAIR" INDICATES FEW OR NO CLOUDS BELOW 12,000 FEET WITH NO
SIGNIFICANT WEATHER AND/OR OBSTRUCTIONS TO VISIBILITY.


SDZ001>005-009-010-012>017-180100-
NORTHWEST AND NORTH CENTRAL SOUTH DAKOTA

CITY           SKY/WX    TMP DP  RH WIND       PRES   REMARKS
BUFFALO          N/A     20  17  88 SE10      29.96R WCI   9
FAITH            N/A     18  14  84 SE12      30.09R WCI   5
MOBRIDGE       CLOUDY    20  12  71 SE9       30.17R WCI   9
$$

SDZ012>016-024>037-041>051-057-063-072>074-180100-
SOUTHWEST AND SOUTH CENTRAL SOUTH DAKOTA

CITY           SKY/WX    TMP DP  RH WIND       PRES   REMARKS
RAPID CTY ARPT CLOUDY    23  19  85 NE9       30.01R WCI  13
PIERRE         CLOUDY    18  15  88 SE14      30.18R WCI   4
CUSTER         CLEAR     26  17  68 SW5       29.87R WCI  20
PHILIP         CLOUDY    23  18  81 E10       30.09R WCI  12
PINE RIDGE     CLOUDY    25  21  85 SW12      29.99R WCI  14
WINNER         CLOUDY    22  18  85 SE9       30.15  WCI  12
$$

SDZ004>011-016>023-039-040-180100-
NORTHEAST SOUTH DAKOTA

CITY           SKY/WX    TMP DP  RH WIND       PRES   REMARKS
ABERDEEN       PTCLDY    11   6  81 SE5       30.28R WCI   3
WATERTOWN      PTCLDY    13   8  81 E7        30.23F WCI   3
SISSETON         N/A      8   6  92 W3        30.28F
$$

SDZ017-020-022-023-036>040-048>070-180100-
SOUTHEAST SOUTH DAKOTA

CITY           SKY/WX    TMP DP  RH WIND       PRES   REMARKS
SIOUX FALLS    PTCLDY    14   9  80 NE5       30.28R WCI   6
HURON          MOCLDY    11   8  88 CALM      30.27R
MITCHELL       PTCLDY    14  11  87 S5        30.28R WCI   6
YANKTON        CLOUDY    16  10  79 NE8       30.27F WCI   5
$$

ABBREVIATIONS USED IN REMARKS
   TC - TEMPERATURE IN CELSIUS
  WCI - WIND CHILL INDEX
   HX - HEAT INDEX
  VSB - VISIBILITY



USA.gov is the U.S. government's official web portal to all federal, state and local government web resources and services.